CZ-6A DEB, 61316

Orbit data source: Space-Track

CZ-6A DEB, 61316 is space debris in LEO originally from a launch on Tue, 06 Aug 2024 UTC launched from the Taiyaun Space Center, China (TSC). Debris objects in space refer to the collection of defunct objects orbiting the Earth. Examples of debris include non-operational satellites, rocket bodies, and fragments generated from explosions, collisions, or faulty payload assembly.

Loading next visibility...
Identifier
61316, 2024-140UD
Orbit
LEO
Country
Flag of CNCN / PRC
Related business
Manufacturer
SAST
Mission
Spacecraft
Bus & Motor
Unknown
Mass
Unknown
Launch date (UTC)
2024-08-06 (2 years ago)
Launch vehicle
Unknown
Launch site
Taiyaun Space Center, China (TSC)
Object type
Payload
Rocket body
Debris
Shape & HBR
Unknown shape, 0.1 m
Radar Cross Section
Medium (>0.1 m² and <1 m²)

Expand to show TLE details & history
Last TLE update: 17 hours ago

TLE from 17 hours ago
0 CZ-6A DEB
1 61316U 24140UD  26171.27950403  .00001021  00000-0  28403-3 0  9999
2 61316  89.0640 276.6318 0077762 332.2355  27.4706 14.43978640195198
Epoch: 2026-06-20T06:42Z
TLE epoch observation values (Epoch: 2026-06-20T06:42:29.148Z)
Latitude
-0.00004°
Longitude
-92.48605°
Altitude
699.405 km
Speed
7.532 km/s
True Right ascension
18h 26m 31s
True Declination
0° 00' 00"
Sunlit
Object was in full shadow at epoch
Visualization orbit readout
Latitude
Unknown
Longitude
Unknown
Altitude
Unknown
Speed
Unknown
Apparent Right ascension
Unknown
Apparent Declination
Unknown
Sunlit
N/A
Visualization observer readout
Local Sidereal Time
10:18:08
Azimuth
Unknown
Elevation
Unknown
Doppler factor
Unknown
Orbital elements
Apogee altitude
797.669 km
Perigee altitude
686.93 km
Semi-major axis
7,120.437 km
Eccentricity
0.00778
Inclination
89.064°
RAAN
276.6318°
Arg. of periapsis
332.2355°
True anomaly
27.88522°
Mean anomaly
27.4706°
Eccentric anomaly
27.67755°
Mean motion
3.6123 °/min
Orbital period
99.66 mins
BSTAR
0.00028403
Loading maneuver chart data...
Computing Atmospheric mass density...
Loading historical data...
Loading historical data...
Loading historical data...
Loading historical data...
Loading historical data...
Loading historical data...
Loading historical data...

Documentation

Showing up to 5 results
|